User: anonymous   Login
Location: Poughquag
(41.6090°N, 73.6820°W)
Time: 18:46:26
(UTC-05:00)
Language:

M-CUBED/EXP-1 PRIME - Orbit

View from above orbital plane
View from above orbital plane
View from above satellite
View from above satellite

Ground track
Ground track

The orbit data is extracted from the following two-line orbital elements,

1 37855U 11061F   23332.10113621  .00050855  00000-0  11556-2 0  9998
2 37855 101.6978  27.9300 0094854 254.3484 104.7264 15.38169993661655
Epoch (UTC): 28 November 2023 02:25:38
Eccentricity: 0.0094854
inclination: 101.6978°
perigee height: 387 km
apogee height: 516 km
right ascension of ascending node: 27.9300°
argument of perigee: 254.3484°
revolutions per day: 15.38169993
mean anomaly at epoch: 104.7264°
orbit number at epoch: 66165

The dashed part of the orbit path shows where the satellite is in the earth's shadow,  

DLR